Miscellaneous Local Product
Issued by NWS Hastings, NE

Home | Current Version | Previous Version | Graphics & Text | Print | Product List | Glossary On
Versions: 1 2 3 4 5 6 7 8 9 10 11 12 13 14 15 16 17 18 19 20 21 22 23 24 25 26 27 28 29 30 31 32 33 34 35 36 37 38 39 40 41 42 43 44 45 46 47 48 49 50
000
AXUS43 KGID 292202
MISGRI

GID CWA HOURLY WEATHER ROUNDUP
NATIONAL WEATHER SERVICE HASTINGS NE
500 PM CDT FRI MAY 29 2015

NOTE: "FAIR" INDICATES FEW OR NO CLOUDS BELOW 12,000 FEET WITH NO
SIGNIFICANT WEATHER AND/OR OBSTRUCTIONS TO VISIBILITY.

...SOUTH CENTRAL NEBRASKA...

CITY           SKY/WX    TMP DP  RH WIND       PRES   REMARKS
GRAND ISLAND   MOSUNNY   70  56  61 N23       29.99R
HASTINGS       PTSUNNY   75  59  57 N22       29.97S
KEARNEY        CLOUDY    70  54  56 N25G33    30.00R
ORD            CLOUDY    58  50  75 N21G32    30.06R
YORK           PTSUNNY   77  57  50 N10G17    29.93F
AURORA         CLOUDY    74  57  55 NW24      29.96R
LEXINGTON      LGT RAIN  61  56  84 N23G30    30.06R
HOLDREGE       PTSUNNY   69  54  58 N25G32    30.00R
HEBRON         PTSUNNY   80  54  40 NW6       29.93F

...NEBRASKA PANHANDLE...

CITY           SKY/WX    TMP DP  RH WIND       PRES   REMARKS
CHADRON        LGT RAIN  48  45  89 NE14      30.29R
ALLIANCE       LGT RAIN  47  45  93 N17       30.25S FOG
SCOTTSBLUFF    LGT RAIN  51  48  89 N17       30.26R
SIDNEY         CLOUDY    52  47  83 N17       30.23R

...WESTERN AND NORTH CENTRAL NEBRASKA...

CITY           SKY/WX    TMP DP  RH WIND       PRES   REMARKS
VALENTINE      LGT RAIN  49  47  93 N17G25    30.21R
AINSWORTH      LGT RAIN  50  49  96 N20G28    30.17R
ONEILL         LGT RAIN  54  52  95 N18G32    30.08R
BROKEN BOW     CLOUDY    61  51  70 N28G37    30.09R
IMPERIAL       CLOUDY    60  52  74 N22G28    30.14R
NORTH PLATTE   LGT RAIN  55  51  86 NW15G23   30.17R
MCCOOK         LGT RAIN  63  55  75 N36G47    30.04R

...EASTERN NEBRASKA...

CITY           SKY/WX    TMP DP  RH WIND       PRES   REMARKS
NORFOLK        CLOUDY    63  58  83 N23G30    29.97R
SO SIOUX CITY  LGT RAIN  68  61  78 N20G26    29.89R
TEKAMAH        CLOUDY    80  61  52 SW8       29.87F
COLUMBUS       PTSUNNY   73  57  56 NW24G30   29.94R
ALBION         CLOUDY    59  53  78 NW23G32   30.00R
OMAHA EPPLEY   CLOUDY    78  60  53 S12       29.88F
OFFUTT AFB     CLOUDY    78  62  57 S10       29.89F
MILLARD        CLOUDY    78  62  58 S8        29.89F
LINCOLN        PTSUNNY   79  59  50 W5        29.91F
NEBRASKA CITY  PTSUNNY   74  58  55 SW13      29.92F
BEATRICE       PTSUNNY   77  60  57 W8        29.92F
FALLS CITY     CLOUDY    74  65  73 SW13      29.93F

...NORTHERN KANSAS...

CITY           SKY/WX    TMP DP  RH WIND       PRES   REMARKS
GOODLAND       MOSUNNY   66  49  54 NW33G44   30.10R
HILL CITY      MOSUNNY   79  54  41 CALM      29.97F
NORTON         MOCLDY    75  46  35 N5        29.97F
PHILLIPSBURG   MOSUNNY   82  55  39 NW13      29.95F
SMITH CENTER   SUNNY     79  55  44 CALM      29.94F
HAYS           MOSUNNY   79  55  44 NW8       29.97F
RUSSELL        MOSUNNY   78  58  49 NW7       29.95F
CONCORDIA      PTSUNNY   78  60  53 N6        29.93F
SALINA         PTSUNNY   79  59  50 NW5       29.94F
TOPEKA         CLOUDY    73  66  78 S9        29.95F



USA.gov is the U.S. government's official web portal to all federal, state and local government web resources and services.